Regional Weather Roundup
Issued by NWS

Home | Current Version | Previous Version | Text Only | Print | Product List | Glossary Off
Versions: 1 2 3 4 5 6 7 8 9 10 11 12 13 14 15 16 17 18 19 20 21 22 23 24 25 26 27 28 29 30 31 32 33 34 35 36 37 38 39 40 41 42 43 44 45 46 47 48 49 50

000
ASUS44 KMEG 220310
RWRTN
TENNESSEE HOURLY STATE WEATHER ROUNDUP
NATIONAL WEATHER SERVICE MEMPHIS TN
1000 PM CDT SUN SEP 21 2014

TNZ002-004-019-021-049-052-054-088>092-220400-
WEST TENNESSEE

CITY           SKY/WX    TMP DP  RH WIND       PRES   REMARKS
MEMPHIS INTL   PTCLDY    75  51  43 N7        30.07R
NWS MEMPHIS      N/A     73 N/A N/A MISG        N/A
JACKSON        CLEAR     64  52  64 N6        30.06R
DYERSBURG      CLEAR     63  46  55 N3        30.09R
UNION CITY     CLEAR     61  54  77 N7        30.07R
PARIS          CLEAR     59  48  67 N6        30.08R
HUNTINGDON     CLEAR     58  52  80 CALM      30.07R
LEXINGTON      CLEAR     64  52  63 N5        30.05R
SAVANNAH       MOCLDY    72  55  56 N3        30.05R
$$

TNZ008-025-027-028-033-062-065-066-220400-
NORTH MIDDLE TENNESSEE

CITY           SKY/WX    TMP DP  RH WIND       PRES   REMARKS
NASHVILLE      CLEAR     68  50  52 NW6       30.05R
DICKSON        CLEAR     64  48  55 N3        30.05R
PORTLAND       CLEAR     64  48  55 NW3       30.04R
CLARKSVILLE    CLEAR     63  50  62 N12       30.05R
LEBANON        CLEAR     60  51  72 CALM      30.03R
SMYRNA         CLEAR     65  52  62 CALM      30.05R
COOKEVILLE     CLEAR     63  54  72 CALM      30.04R
GALLATIN       CLEAR     66  52  60 NW3       30.05R
CROSSVILLE     CLEAR     64  51  62 N5        30.06R
$$

TNZ061-075-076-078-094-096-097-220400-
SOUTH MIDDLE TENNESSEE

CITY           SKY/WX    TMP DP  RH WIND       PRES   REMARKS
LEWISBURG      PTCLDY    70  52  52 N5        30.04R
FAYETTEVILLE   CLEAR     70  57  64 N10       30.03R
TULLAHOMA      PTCLDY    68  48  49 N9        30.05R
WINCHESTER     CLOUDY    70  61  73 NW6       30.04R
MCMINNVILLE    CLEAR     66  52  59 CALM      30.05R
COLUMBIA       CLEAR     70  52  52 N3        30.04R
SHELBYVILLE    PTCLDY    68  54  60 N6        30.05R
$$

TNZ017-018-042-046-047-220400-
NORTHEAST TENNESSEE

CITY           SKY/WX    TMP DP  RH WIND       PRES   REMARKS
TRI CITIES     PTCLDY    68  59  73 NW14      30.00R
ELIZABETHTON   MOCLDY    64  63  94 NW5       29.99R
$$

TNZ012-013-036-069-073-074-220400-
CENTRAL EAST TENNESSEE

CITY           SKY/WX    TMP DP  RH WIND       PRES   REMARKS
KNOXVILLE      PTCLDY    70  68  93 NW6       29.99R
OAK RIDGE      PTCLDY    72  52  49 VRB6      30.02R
GATLINBURG     MOCLDY    70  64  83 NW7       29.98R
MORRISTOWN     CLEAR     70  55  60 N9        30.01R
$$

TNZ083-085-099-220400-
SOUTHEAST TENNESSEE

CITY           SKY/WX    TMP DP  RH WIND       PRES   REMARKS
CHATTANOOGA    MOCLDY    72  67  84 NW5       29.99R
$$

SKY/WX REPORTED AS FAIR MEANS FEW OR NO CLOUDS BELOW
12 THOUSAND FEET.



USA.gov is the U.S. government's official web portal to all federal, state and local government web resources and services.